Погода Аскино

Погода Аскино : погода сейчас, прогноз погоды и архив. Всё, что Вы хотите узнать о погоде Аскино!

Поиск расширенной информации на нашем сайте:

Другие новости

Новости СМИ2

Главная страница сайта

Новости сайта

02.10.2013

Напоминаем, что на нашем новом сайте вы можете получить высокодетализированные прогнозы погоды по пунктам России, СНГ и мира (включающие важные для авиации метеовеличины, такие как направление и скорость ветра, видимость, явления погоды, количество и форма облачности, нижняя и верхняя граница облачности), а также ознакомиться с разнообразными материалами по авиационной метеорологии и подборкой полезных ссылок на эту тему.

Сайт Метеоцентр.Азия посвящён разработке технологий оптимизации авиаметеорологического обслуживания, включая проектирование и перспективное создание нескольких автоматизированных авиаметеорологических систем:
- система выпуска высокодетальных прогностических карт явлений погоды для нижнего воздушного пространства по России и ближнему зарубежью;
- система верификации прогнозов TAF (выпускаемых синоптиками официальных АМСГ РФ и ближнего зарубежья) и AUTOTAF (выпускаемых сайтом Метеоцентр.Азия) - выявление ошибок, онлайн-сопоставление с фактической погодой METAR, автоматическое внесение коррективов в прогнозы при резком отклонении фактической погоды от прогноза, подсчёт оправдываемости прогнозов по элементам и в целом;
- система обработки, анализа и отображения авиаметеорологической информации для применения провайдерами метеорологической информации.

Рекомендуем: поздравления с днем рождения, поздравления с днем рождения девушке любимой женщине.

Погода Аскино - сегодня

Время (UTC), дата Ветер
(°,м/с) 
Видим.   Явления Облачность Т
(°С)
Тd
(°С)
f(%) Тe
(°С)
Pmin
(гПа)
dP
(гПа)
Po
(мм)
O2
(г/м3)
Тmin Tmax R s Состояние
почвы
15 24.03.17 210 (ЮЗ) 20000 м    8/0 средняя, верхняя 
[Ac lent|Ci]
-0.8 -4.2 78 -3  1018.9  0.1  745  301    +1.5  0.3     
18 24.03.17 160 (Ю) н/о    10/10 1000 м 
[Sc]
-1.5 -3.8 84 -2  1019.3  0.3  745  302           
21 24.03.17 160 (Ю) н/о    10/10 1000 м 
[Sc]
-1.7 -3.7 86 -4  1018.3  -0.9  744  302           
00 25.03.17 200 (Ю) н/о    10/10 1000 м 
[Sc]
-1.4 -3.5 86 -3  1017.5  -0.7  744  302           
03 25.03.17 190 (Ю) 10 км    9/0 средняя, верхняя 
[Ac As|Cs]
-2.9 -4.6 88 -6  1016.5  -1.2  743  303  -3      75  неравномерный
сухой снег
100% 
06 25.03.17 180 (Ю) 7{10}  10 км    10/8 1000 м средняя 
[Cu med, cong|Ac und]
-1 -3.2 85 -5  1014.2  -2  741  300           
09 25.03.17 180 (Ю) 10{15}  10 км    10/8 1000 м средняя 
[Cu med, cong|Ac und]
-0 -4 74 -5  1011  -3  739  298           
12 25.03.17 170 (Ю) 8{17}  4000 м  слаб. снег  10/10 300 м 
[Ns]
-0.5 -1.5 93 -5  1007.5  -3.5  736  297           
15 25.03.17 190 (Ю) 9{16}  4000 м  слаб. снег  10/10 300 м 
[Ns]
+0.2 -0.8 93 -4  1004.8  -2.5  734  296    +0.4  0.9     
18 25.03.17 190 (Ю) 9-12{15}  4000 м  слаб. снег  10/10 300 м 
[Ns]
+0.8 -0.6 90 -4  1003.8  -0.9  734  295           
21 25.03.17 190 (Ю) 6{13}  4000 м  слаб. снег  10/10 300 м 
[Ns]
+0.8 -0.5 91 -3  1003.5  -0.3  734  295           
00 26.03.17 200 (Ю) 4000 м  слаб. снег  10/10 300 м 
[Ns]
+0.2 -0.7 94 -2  1003.4  -0.2  733  295           
03 26.03.17 210 (ЮЗ) 4000 м  слаб. снег  10/10 300 м 
[Ns]
+0.2 -0.6 94 -2  1003.3  0.1  733  295  +0.1    77  неравномерный
мокрый или
старый снег
100% 
06 26.03.17 230 (ЮЗ) 7{13}  10 км  слаб. снег  10/10 300 м 
[Ns]
-0.3 -2.7 84 -4  1004.6  1.2  734  296  -0.5         
09 26.03.17 230 (ЮЗ) 9{15}  10 км  {снег}  10/8 1000 м средняя 
[Cu med, cong|Ac und]
-0.9 -4.3 78 -6  1006.1  1.4  735  298           
12 26.03.17 220 (ЮЗ) 8{14}  20000 м  {снег}  9/8 1000 м средняя 
[Cu med, cong|Ac trans]
-0.4 -6.7 62 -5  1006.5  0.5  736  298           
15 26.03.17 220 (ЮЗ) 9{15}  20000 м    10/5 1000 м средняя 
[Cu med, cong|Ac und]
-1.2 -7.1 64 -6  1006.2  -0.4  735  298    +0.5  0.7     
18 26.03.17 220 (ЮЗ) 8{15}  4000 м  слаб. снег  10/0 средняя 
[As op]
-1.5 -4.7 79 -6  1005.3  -0.9  735  298           
21 26.03.17 230 (ЮЗ) 7{13}  4000 м  слаб. снег  10/0 средняя 
[As op]
-1.1 -3.1 86 -5  1005.1  -0.2  735  297           
00 27.03.17 230 (ЮЗ) 6{12}  4000 м  слаб. снег  10/10 300 м 
[Ns]
-1 -3.1 86 -5  1005.1  735  297           
03 27.03.17 220 (ЮЗ) 6{10}  20000 м  {снег}  9/9 1000 м 
[Cu med, cong]
-1.5 -4.4 81 -5  1004.8  -0.3  734  298  -1.7    0.5  76  неравномерный
сухой снег
100% 
06 27.03.17 190 (Ю) 6{10}  20000 м  {снег}  10/0 средняя 
[Ac und]
+0 -4.3 73 -3  1004.6  734  296           
09 27.03.17 190 (Ю) 7-13{13}  20000 м    9/6 1000 м средняя 
[Cu med, cong|Ac As]
+1.7 -4.3 64 -2  1004.1  -0.4  734  294           
12 27.03.17 220 (ЮЗ) 6{13}  20000 м    6/6 1000 м 
[Cu med, cong]
+2.4 -6.1 53 -1  1003.4  -0.6  734  294           
15 27.03.17 200 (Ю) 4{11}  20000 м    3/3 1000 м 
[Sc diur, vesp]
-0.1 -5.1 69 -3  1003.6  734  296    +2.6       
Время (UTC), дата Ветер
(°,м/с) 
Видим.   Явления Облачность Т
(°С)
Тd
(°С)
f(%) Тe
(°С)
Pmin
(гПа)
dP
(гПа)
Po
(мм)
O2
(г/м3)
Тmin Tmax R s Состояние
почвы

Для получения пояснительной информации подведите курсор к названию столбца.

ПОГОДА Аскино - архив

Всё, что Вы хотите узнать о погоде Аскино - удобно и подробно!

Выберите нужную дату (начиная с 1 января 2015* года) и нажмите кнопку "Найти".
Будут отображены архивные сводки погоды по пункту Аскино, начиная с указанной даты.


Отображать данные в формате CSV (для использования в таблицах Excel)


Внимание! Наш архив погоды предназначен исключительно для личного некоммерческого использования в познавательных целях. Если Вам необходимы официальные справки о состоянии погоды (для производственных, юридических, коммерческих и т.п. целей), обращайтесь в органы Росгидромета.

*Примечание: данная дата относится к архиву по метеостанциям СССР (Россия, СНГ, Балтия).
Архив по метеостанциям Зарубежной Европы и Азии (кроме Китая) хранится 10 дней, по другим регионам земного шара (Китай, Африка, Америка, Австралия, Океания) - 1 день.

Аскино - район местоположения метеостанции


Название, широта, долгота, высота метеостанции:
Аскино 56.1°ш. 56.6°д. 207 м над ур. моря [Российская Федерация]

Дополнительная информация

В oтличие oт бoльшинства пoгoдных сайтoв мы публикуем пoдрoбную метеoинфoрмацию в детальнoм прoфессиoнальнoм фoрмате.

Характеристики температуры и влажнoсти вoздуха измеряются на высoте 2 м в тени вдали oт зданий и деревьев.
Скoрoсть ветра измеряется на высoте 10 м (на урoвне рoста челoвека скoрoсть ветра ниже в 1.5-2 раза). Если метеoстанция нахoдится в гoрoде или в лесу, тo скoрoсть ветра занижена на 2-4 м/с пo сравнению с oткрытым местoм. Скoрoсть ветра над акватoриями крупных рек и oзёр, а также на вершинах хoлмoв на 2-5 м/с выше, чем в oбычных услoвиях.
Атмoсфернoе давление в разных тoчках местнoсти мoжет значительнo oтличаться oт давления на метеoстанции, в зависимoсти oт услoвий рельефа (при пoдъёме на 10 м давление пoнижается примернo на 1 мм рт.ст.).